[Iaude] MPEC S159: 2023 SE4 [a=0.95,e=0.15,i=6.0,H=27.0]

mpec at marsden.cfa.harvard.edu mpec at marsden.cfa.harvard.edu
Fri Sep 22 14:16:02 EDT 2023


M.P.E.C. 2023-S159                           Issued 2023 September 22, 18:14 UT

     The Minor Planet Electronic Circulars contain information on unusual
         minor planets, routine data on comets and natural satellites,
         and occasional editorial announcements.  They are published
    on behalf of Division F of the International Astronomical Union by the
          Minor Planet Center, Smithsonian Astrophysical Observatory,
                          Cambridge, MA 02138, U.S.A.
			  
             Prepared using the Tamkin Foundation Computer Network

                              MPC at CFA.HARVARD.EDU
            URL https://www.minorplanetcenter.net/    ISSN 1523-6714

                                    2023 SE4                                    


Observations:
     K23S04E* C2023 09 20.34090023 06 55.573+22 48 03.40         20.56wXES159F52
     K23S04E  C2023 09 20.35176223 06 50.039+22 46 31.48         20.34wXES159F52
     K23S04E  C2023 09 20.36269123 06 44.458+22 44 58.47         20.35wXES159F52
     K23S04E  C2023 09 20.37369623 06 38.763+22 43 23.38         20.39wXES159F52
     K23S04E  C2023 09 20.48052323 05 43.451+22 27 24.47         20.22GVES159F51
     K23S04E  C2023 09 20.48133523 05 43.034+22 27 16.81         20.33GVES159F51
     K23S04E 1C2023 09 20.78356 23 04 07.06 +21 37 49.1          20.8 VXES159033
     K23S04E 1C2023 09 20.78419 23 04 06.77 +21 37 43.5          20.6 VXES159033
     K23S04E 1C2023 09 20.78482 23 04 06.48 +21 37 37.8          20.5 VXES159033
     K23S04E KB2023 09 20.85674523 03 36.16 +21 26 56.5          20.1 GVES159I93
     K23S04E KB2023 09 20.85991323 03 34.58 +21 26 27.5          20.0 GVES159I93
     K23S04E KB2023 09 20.86297023 03 33.10 +21 25 58.7          19.3 GVES159I93
     K23S04E KC2023 09 22.15461922 54 01.74 +17 31 37.7          19.7 GXES159858
     K23S04E KC2023 09 22.15908422 53 59.04 +17 30 43.8          19.8 GXES159858
     K23S04E KC2023 09 22.16354922 53 56.35 +17 29 50.0          19.8 GXES159858

Observer details:
033 Karl Schwarzschild Observatory, Tautenburg.  Observers S. Melnikov, C.
    Hogner, F. Ludwig, M. Hartmann, B. Stecklum.  Measurer B. Stecklum.
    1.34-m f/3 Schmidt + CCD.
858 Tebbutt Observatory, Edgewood.  Observer F. B. Zoltowski.  0.51-m f/8.1
    Schmidt-Cassegrain + CCD.
F51 Pan-STARRS 1, Haleakala.  Observers J. Bulger, K. Chambers, T. Lowe, P.
    Minguez, A. Schultz, I. Smith.  Measurers S. Chastel, J. Fairlamb, M.
    Huber, Y. Ramanjooloo, R. Wainscoat, R. Weryk.  1.8-m Ritchey-Chretien +
    CCD.
F52 Pan-STARRS 2, Haleakala.  Observers J. Bulger, T. Lowe, P. Minguez, A.
    Schultz, I. Smith.  Measurers K. Chambers, T. de Boer, J. Bulger, J.
    Fairlamb, H. Gao, M. Huber, C.-C. Lin, T. Lowe, E. Magnier, P. Minguez, Y.
    Ramanjooloo, A. Schultz, I. Smith, R. Wainscoat, R. Weryk.  1.8-m Ritchey-
    Chretien + CCD.
I93 St Pardon de Conques.  Observer F. Losse.  0.40-m f/3.7 reflector + CMO.

Orbital elements:
2023 SE4                                                 Earth MOID = 0.0071 AU
Epoch 2023 Sept. 13.0 TT = JDT 2460200.5                Bell                    
M 235.35284              (2000.0)            P               Q                  
n   1.06911713     Peri.  304.75490     -0.61427370     -0.78907183             
a   0.9472236      Node   183.16242     +0.75392609     -0.58471742             
e   0.1539968      Incl.    6.02044     +0.23294478     -0.18833799             
P   0.92           H   27.07          G   0.15           U   7                  
Residuals in seconds of arc
230920 F52  0.0   0.0     230920 F51  0.0   0.1-    230920 I93  0.2-  0.4+
230920 F52  0.1-  0.1+    230920 033  0.1-  0.1-    230920 I93  0.2+  0.0
230920 F52  0.2+  0.4+    230920 033  0.1-  0.0     230922 858  0.2+  0.0
230920 F52  0.1-  0.0     230920 033  0.1-  0.1+    230922 858  0.1-  0.1-
230920 F51  0.0   0.0     230920 I93  0.2+  0.1+    230922 858  0.1-  0.0

Ephemeris:
2023 SE4                 a,e,i = 0.95, 0.15, 6                   q = 0.8014
Date    TT    R. A. (2000) Decl.     Delta      r    Elong.  Phase     V
2023 08 23    23 58 45.9 +36 21 18   0.1050  1.0752   125.1    50.4    24.2
...
2023 09 07    23 49 42.0 +35 36 26   0.06235 1.0540   136.4    41.2    22.8
...
2023 09 15    23 31 35.0 +31 10 09   0.04067 1.0397   145.5    33.2    21.6
...
2023 09 21    23 02 27.1 +21 06 22   0.02573 1.0276   154.9    24.5    20.3
2023 09 22    22 55 04.2 +18 05 15   0.02347 1.0255   156.3    23.2    20.1
2023 09 23    22 46 33.7 +14 24 35   0.02133 1.0234   157.1    22.4    19.8
...
2023 09 29    21 10 56.5 -28 48 47   0.01363 1.0099   125.3    54.0    19.7
...
2023 10 07    16 02 13.2 -63 04 08   0.02486 0.9905    67.7   111.0    23.3
...
2023 10 22    13 25 13.6 -53 54 44   0.06202 0.9513    43.3   134.1    27.1

M. P. C. Staff               (C) Copyright 2023 MPC           M.P.E.C. 2023-S159





More information about the Iaude mailing list